Skip Page Navigation
NASA JPL Caltech
NASA Logo - Jet Propulsion Laboratory + View the NASA Portal
+ Center for Near-Earth Object Studies
JPL Home Earth Solar System Stars & Galaxies Technology
JPL Solar System Dynamics
BODIES ORBITS EPHEMERIDES TOOLS PHYSICAL DATA DISCOVERY FAQ SITE MAP
IMPORTANT: The SSD Announcement email list is now available. Major changes are coming in the near future, including possible hostname and/or URL changes. To be notified of such changes, subscribe to this email list.

Please visit this page for more details.


JPL Small-Body Database Browser
Search: [ help ]  
(2007 ML13)
Classification: Amor [NEO]          SPK-ID: 3378868
Ephemeris | Orbit Diagram | Orbital Elements | Mission Design | Physical Parameters | Close-Approach Data ]

[ hide orbit diagram ]

For accurate long-term ephemerides, please instead use our Horizons system.This orbit viewer was implemented using two-body methods, and hence should not be used for determining accurate long-term trajectories (over several years or decades) or planetary encounter circumstances.


[ revert to old Java-based viewer ]

Orbital Elements at Epoch 2458600.5 (2019-Apr-27.0) TDB
Reference: JPL 47 (heliocentric ecliptic J2000)
 Element Value Uncertainty (1-sigma)   Units 
e .08473954926388989 1.9014e-07  
a 1.297280781577203 2.5265e-08 au
q 1.187349792877644 2.273e-07 au
i 18.01236999838469 1.665e-05 deg
node 135.5239536716164 1.7396e-05 deg
peri 139.2862600083217 0.0002007 deg
M 358.0569880200902 0.00023901 deg
tp 2458603.412878573074
(2019-Apr-29.91287857)
0.0003584 TDB
period 539.6962536253374
1.48
1.5766e-05
4.316e-08
d
yr
n .6670418732421212 1.9486e-08 deg/d
Q 1.407211770276762 2.7406e-08 au
  Orbit Determination Parameters
   # obs. used (total)      201  
   data-arc span      4488 days (12.29 yr)  
   first obs. used      2007-06-22  
   last obs. used      2019-10-05  
   planetary ephem.      DE431  
   SB-pert. ephem.      SB431-N16  
   condition code      0  
   norm. resid. RMS      .50799  
   source      ORB  
   producer      Otto Matic  
   solution date      2019-Oct-06 05:58:42  

Additional Information
 Earth MOID = .192193 au 
 Jupiter MOID = 3.69851 au 
 T_jup = 4.957 
[ show covariance matrix ]

Ephemeris | Orbit Diagram | Orbital Elements | Mission Design | Physical Parameters | Close-Approach Data ]

Physical Parameter Table
Parameter Symbol Value Units Sigma Reference Notes
absolute magnitude H 20.1   n/a E2013Q28  

[ show close-approach data ]
Ephemeris | Orbit Diagram | Orbital Elements | Mission Design | Physical Parameters | Close-Approach Data ]
ABOUT SSD CREDITS/AWARDS PRIVACY/COPYRIGHT GLOSSARY LINKS
FirstGov
(server date/time)  
NASA Home Page
Site Manager:   Ryan S. Park
Webmaster  Alan B. Chamberlin